sat.trackr.live / text

‹ back to catalog

STARLINK-4300

NORAD 53173 · 2022-083AT

PAYLOAD ACTIVE UNKNOWN

§ Identity

Operator
Country
US
Launch date
2022-07-17
Launch site
AFETR
Launch vehicle
Mass (kg)
RCS (m²)

Purposes: comms

External: N2YO · Heavens-Above · Gunter

§ Orbital elements

Epoch: 2026-05-24T18:35:46.672800Z

Period
95.44 min
Inclination
53.2135°
Eccentricity
0.0001389
Mean motion
15.08840555 rev/d
Perigee alt
538.8 km
Apogee alt
540.7 km
Semi-major
6,917.9 km
B*
-7.0417e-6
RAAN
157.5510°
Arg perigee
92.5437°
Mean anomaly
267.5715°
Rev number
21,318

§ Raw data

STARLINK-43001 53173U 22083AT  26144.77484575 -.00000400  00000+0 -70417-5 0  99972 53173  53.2135 157.5510 0001389  92.5437 267.5715 15.08840555213184

JSON: /api/v1/satellites/53173 · /tle

For live sub-satellite position, see the globe view (requires WebGL).

§ Visibility from observer

Set your observer location to see the next 7 days of passes ≥ 10°. The values pass through the URL so the page stays shareable.

No JS? Fill the form by hand. The geolocation button needs JavaScript.